Weather History for Istanbul, Turkey

Change the Weather History Date:

Sunday, December 15, 2013

  Actual Average Record
Temperature  
Mean Temperature 43 °F -  
Max Temperature 49 °F 48 °F 59 °F (1996)
Min Temperature 37 °F 39 °F 32 °F (2001)
Degree Days  
Heating Degree Days 22    
Moisture  
Dew Point 35 °F    
Average Humidity 70    
Maximum Humidity 93    
Minimum Humidity 41    
Precipitation  
Precipitation 0.00 in - - ()
Sea Level Pressure  
Sea Level Pressure 30.43 in    
Wind  
Wind Speed 7 mph ()    
Max Wind Speed 10 mph    
Max Gust Speed -    
Visibility 5.3 miles    
Events      
Averages and records for this station are not official NWS values.
T = Trace of Precipitation, MM = Missing Value Source: Averaged Metar Reports

Daily Weather History Graph

Daily Weather History Graph

Search for Another Location

Airport:

Trip Planner

Search our weather history database for the weather conditions in past years. The results will help you decide how hot, cold, wet, or windy it might be!

Date:

Astronomy

Dec. 15, 2013 Rise Set
Actual Time 7:22 AM EET 4:37 PM EET
Civil Twilight 6:51 AM EET 5:08 PM EET
Nautical Twilight 6:16 AM EET 5:43 PM EET
Astronomical Twilight 5:43 AM EET 6:16 PM EET
Moon 3:27 PM EET (12/15) 5:20 AM EET (12/15)
Length of Visible Light 10h 17m
Length of Day
9h 14m
Waxing Gibbous, 96% of the Moon is Illuminated
Dec 15
Waxing Gibbous
Dec 17
Full
Dec 25
Last Quarter
Jan 1
New
Jan 8
First Quarter

Hourly Weather History & Observations

Time (EET) Temp. Windchill Dew Point Humidity Pressure Visibility Wind Dir Wind Speed Gust Speed Precip Events Conditions
12:20 AM 44.6 °F 40.2 °F 35.6 °F 71% 30.42 in 6.2 mi SSW 8.1 mph - N/A   Scattered Clouds
12:50 AM 44.6 °F 39.7 °F 37.4 °F 76% 30.42 in 6.2 mi South 9.2 mph - N/A   Scattered Clouds
1:20 AM 44.6 °F 39.7 °F 37.4 °F 76% 30.42 in 6.2 mi SSW 9.2 mph - N/A   Scattered Clouds
1:50 AM 44.6 °F 39.2 °F 35.6 °F 71% 30.42 in 6.2 mi SSW 10.4 mph - N/A   Scattered Clouds
2:00 AM 44 °F - 36 °F 66% 30.45 in 6 mi SSW 10.4 mph - -   Partly Cloudy
2:20 AM 44.6 °F 39.7 °F 35.6 °F 71% 30.42 in 6.2 mi SSW 9.2 mph - N/A   Scattered Clouds
2:50 AM 44.6 °F 39.2 °F 35.6 °F 71% 30.45 in 6.2 mi SSW 10.4 mph - N/A   Scattered Clouds
3:20 AM 44.6 °F 39.7 °F 35.6 °F 71% 30.42 in 6.2 mi SSW 9.2 mph - N/A   Scattered Clouds
3:50 AM 44.6 °F 40.2 °F 35.6 °F 71% 30.42 in 6.2 mi SSW 8.1 mph - N/A   Scattered Clouds
4:20 AM 42.8 °F 38.6 °F 35.6 °F 76% 30.42 in 6.2 mi SSW 6.9 mph - N/A   Scattered Clouds
4:50 AM 42.8 °F 39.3 °F 35.6 °F 76% 30.42 in 6.2 mi SW 5.8 mph - N/A   Scattered Clouds
5:00 AM 43 °F - 35 °F 65% 30.44 in 6 mi SW 5.8 mph - -   Partly Cloudy
5:20 AM 42.8 °F 40.1 °F 35.6 °F 76% 30.42 in 6.2 mi SSW 4.6 mph - N/A   Scattered Clouds
5:50 AM 41.0 °F 38.0 °F 33.8 °F 76% 30.42 in 6.2 mi South 4.6 mph - N/A   Scattered Clouds
6:20 AM 42.8 °F 39.3 °F 35.6 °F 76% 30.42 in 6.2 mi South 5.8 mph - N/A   Scattered Clouds
6:50 AM 44.6 °F 40.7 °F 33.8 °F 66% 30.42 in 6.2 mi SSW 6.9 mph - N/A   Scattered Clouds
7:20 AM 42.8 °F 39.3 °F 35.6 °F 76% 30.42 in 6.2 mi SSW 5.8 mph - N/A   Scattered Clouds
7:50 AM 44.6 °F 41.4 °F 33.8 °F 66% 30.42 in 6.2 mi SSW 5.8 mph - N/A   Scattered Clouds
8:00 AM 44 °F - 35 °F 60% 30.45 in 6 mi SSW 5.8 mph - -   Partly Cloudy
8:20 AM 46.4 °F 42.9 °F 33.8 °F 62% 30.42 in 6.2 mi SW 6.9 mph - N/A   Partly Cloudy
8:50 AM 46.4 °F 42.4 °F 33.8 °F 62% 30.45 in - SSW 8.1 mph - N/A   Clear
9:20 AM 48.2 °F - 33.8 °F 58% 30.45 in - SSW 8.1 mph - N/A   Clear
9:50 AM 48.2 °F - 35.6 °F 62% 30.45 in - SSW 8.1 mph - N/A   Clear
10:20 AM 48.2 °F - 37.4 °F 66% 30.45 in - SSW 8.1 mph - N/A   Clear
10:50 AM 48.2 °F - 35.6 °F 62% 30.45 in - SW 6.9 mph - N/A   Clear
11:00 AM 48 °F - 35 °F 50% 30.47 in 6 mi SW 6.9 mph - -  
11:20 AM 48.2 °F - 35.6 °F 62% 30.45 in - SSW 6.9 mph - N/A   Clear
11:50 AM 48.2 °F - 35.6 °F 62% 30.45 in - SW 6.9 mph - N/A   Clear
12:20 PM 48.2 °F - 33.8 °F 58% 30.42 in - SW 6.9 mph - N/A   Clear
12:50 PM 48.2 °F - 35.6 °F 62% 30.42 in - WSW 6.9 mph - N/A   Clear
1:20 PM 48.2 °F - 35.6 °F 62% 30.42 in - SW 6.9 mph - N/A   Clear
1:50 PM 48.2 °F - 33.8 °F 58% 30.42 in - SW 6.9 mph - N/A   Clear
2:00 PM 49 °F - 33 °F 41% 30.44 in 6 mi SW 6.9 mph - -  
2:20 PM 50.0 °F - 33.8 °F 54% 30.42 in - WSW 5.8 mph - N/A   Clear
2:50 PM 50.0 °F - 32.0 °F 50% 30.42 in - SW 6.9 mph - N/A   Clear
3:20 PM 48.2 °F - 35.6 °F 62% 30.42 in - SW 5.8 mph - N/A   Clear
3:50 PM 46.4 °F 44.3 °F 35.6 °F 66% 30.42 in - SW 4.6 mph - N/A   Clear
4:20 PM 46.4 °F 44.3 °F 35.6 °F 66% 30.42 in - SW 4.6 mph - N/A   Clear
4:50 PM 46.4 °F 45.2 °F 35.6 °F 66% 30.42 in - West 3.5 mph - N/A   Clear
5:00 PM 47 °F - 36 °F 56% 30.43 in 6 mi West 3.5 mph - -  
5:20 PM 44.6 °F - 35.6 °F 71% 30.42 in 6.2 mi West 2.3 mph - N/A   Partly Cloudy
5:50 PM 46.4 °F 45.2 °F 37.4 °F 71% 30.42 in 6.2 mi WNW 3.5 mph - N/A   Partly Cloudy
6:20 PM 44.6 °F 42.2 °F 35.6 °F 71% 30.42 in - WNW 4.6 mph - N/A   Clear
6:50 PM 41.0 °F 38.0 °F 35.6 °F 81% 30.42 in - NNW 4.6 mph - N/A   Clear
7:20 PM 41.0 °F 38.0 °F 35.6 °F 81% 30.42 in - NNW 4.6 mph - N/A   Clear
7:50 PM 39.2 °F 35.0 °F 33.8 °F 81% 30.42 in - NNW 5.8 mph - N/A   Clear
8:00 PM 39 °F - 34 °F 77% 30.44 in 6 mi North 5.8 mph - -  
8:20 PM 41.0 °F 35.8 °F 35.6 °F 81% 30.42 in 2.5 mi North 8.1 mph - N/A   Mist
8:50 PM 41.0 °F 37.1 °F 35.6 °F 81% 30.42 in 2.5 mi NNW 5.8 mph - N/A   Mist
9:20 PM 41.0 °F 35.8 °F 35.6 °F 81% 30.42 in 2.2 mi NNW 8.1 mph - N/A   Mist
9:50 PM 39.2 °F 34.2 °F 33.8 °F 81% 30.42 in 2.2 mi NNW 6.9 mph - N/A   Mist
10:20 PM 39.2 °F 33.0 °F 35.6 °F 87% 30.42 in 2.2 mi North 9.2 mph - N/A   Mist
10:50 PM 39.2 °F 33.0 °F 35.6 °F 87% 30.42 in 2.2 mi North 9.2 mph - N/A   Mist
11:00 PM 38 °F - 34 °F 81% 30.45 in 2 mi North 9.2 mph - -   Mist
11:20 PM 37.4 °F 31.4 °F 35.6 °F 93% 30.42 in - NNW 8.1 mph - N/A   Mist
11:50 PM 39.2 °F 35.0 °F 37.4 °F 93% 30.42 in - North 5.8 mph - N/A   Mist